GW4532 Weather Reports


time (UTC)temp
C
wind
direction
speed
KPH
gust
KPH
rain 1hr
cm
rain 24hr
cm
rain mn
cm
humidity
%
barometer
mb
20260504005033 13 0.0 0.0 0.00 0.00 0.00 60 1019.4
20260504004018 13 0.0 0.0 0.00 0.00 0.00 58 1019.4
20260504003021 14 0.0 0.0 0.00 0.00 0.00 55 1019.2
20260504002023 15 0.0 0.0 0.00 0.00 0.00 54 1019.2
20260504001027 15 0.0 0.0 0.00 0.00 0.00 52 1019.1
20260504000025 15 203 0.0 3.2 0.00 0.00 0.00 51 1019.0
20260503235021 16 0.0 0.0 0.00 0.00 0.00 50 1018.9
20260503234019 16 147 0.0 3.2 0.00 0.00 0.00 49 1018.9
20260503233017 17 0.0 3.2 0.00 0.00 0.00 47 1018.7
20260503232032 17 0.0 0.0 0.00 0.00 0.00 47 1018.7
20260503231030 17 142 1.6 3.2 0.00 0.00 0.00 45 1018.7
20260503230026 18 113 0.0 1.6 0.00 0.00 0.00 44 1018.7
20260503225024 18 0.0 0.0 0.00 0.00 0.00 42 1018.7
20260503223018 18 154 1.6 4.8 0.00 0.00 0.00 41 1018.7
20260503222016 19 173 1.6 6.4 0.00 0.00 0.00 40 1018.7
20260503221031 20 174 1.6 3.2 0.00 0.00 0.00 41 1018.7
20260503220023 20 113 0.0 3.2 0.00 0.00 0.00 38 1018.8
20260503215026 20 131 3.2 6.4 0.00 0.00 0.00 37 1018.9
20260503214031 21 90 1.6 4.8 0.00 0.00 0.00 35 1018.9
20260503213027 22 259 3.2 4.8 0.00 0.00 0.00 36 1018.9
20260503212029 23 158 1.6 3.2 0.00 0.00 0.00 34 1019.1
20260503211032 23 73 4.8 9.7 0.00 0.00 0.00 31 1019.2
20260503210018 26 102 4.8 9.7 0.00 0.00 0.00 28 1019.2
20260503205021 28 208 3.2 6.4 0.00 0.00 0.00 27 1019.2
20260503203027 28 105 4.8 8.0 0.00 0.00 0.00 26 1019.6
20260503202024 29 344 3.2 8.0 0.00 0.00 0.00 26 1019.6
20260503201022 29 99 3.2 8.0 0.00 0.00 0.00 27 1019.9
20260503200120 30 122 3.2 6.4 0.00 0.00 0.00 25 1020.1
20260503195017 29 40 3.2 4.8 0.00 0.00 0.00 24 1020.1
20260503194032 28 138 3.2 6.4 0.00 0.00 0.00 26 1020.1
20260503193018 29 66 3.2 6.4 0.00 0.00 0.00 24 1020.3
20260503192016 28 174 4.8 8.0 0.00 0.00 0.00 24 1020.5
20260503191018 29 155 4.8 8.0 0.00 0.00 0.00 24 1020.5
20260503190022 28 291 3.2 6.4 0.00 0.00 0.00 23 1020.6
20260503185018 28 181 3.2 6.4 0.00 0.00 0.00 23 1020.7
20260503184022 27 30 3.2 6.4 0.00 0.00 0.00 24 1020.9
20260503183100 27 58 4.8 9.7 0.00 0.00 0.00 25 1020.9
20260503182016 27 32 3.2 4.8 0.00 0.00 0.00 25 1021.1
20260503181032 26 104 4.8 9.7 0.00 0.00 0.00 27 1021.3
20260503180030 26 208 4.8 8.0 0.00 0.00 0.00 25 1021.4
20260503175032 26 216 4.8 6.4 0.00 0.00 0.00 27 1021.4
20260503174018 26 143 3.2 4.8 0.00 0.00 0.00 28 1021.6
20260503173101 25 265 3.2 4.8 0.00 0.00 0.00 30 1021.9
20260503172024 24 41 3.2 4.8 0.00 0.00 0.00 30 1022.1
20260503131016 7 295 1.6 3.2 0.00 0.00 0.00 82 1023.2
20260503081024 2 0.0 0.0 0.00 0.00 0.00 90 1020.5
20260503072017 2 0.0 0.0 0.00 0.00 0.00 89 1020.1
20260503071033 2 0.0 0.0 0.00 0.00 0.00 89 1020.0
20260503055028 3 173 1.6 3.2 0.00 0.00 0.00 88 1020.0
20260503054026 3 0.0 0.0 0.00 0.00 0.00 88 1020.1
20260503053024 3 209 1.6 3.2 0.00 0.00 0.00 87 1020.0
20260503051019 3 203 0.0 1.6 0.00 0.00 0.00 86 1019.9
20260503050016 3 113 0.0 1.6 0.00 0.00 0.00 84 1019.9
20260503045026 3 113 1.6 3.2 0.00 0.00 0.00 83 1019.9
20260503044029 4 0.0 0.0 0.00 0.00 0.00 84 1019.7
20260503043027 4 100 1.6 3.2 0.00 0.00 0.00 83 1019.6
20260503042131 4 103 0.0 3.2 0.00 0.00 0.00 82 1019.6
20260503041027 5 158 0.0 1.6 0.00 0.00 0.00 81 1019.4
20260503040024 5 302 0.0 3.2 0.00 0.00 0.00 80 1019.4
20260503035022 5 180 0.0 3.2 0.00 0.00 0.00 80 1019.4
20260503034019 5 203 0.0 3.2 0.00 0.00 0.00 78 1019.4
20260503033117 5 191 0.0 1.6 0.00 0.00 0.00 76 1019.1
20260503032033 5 98 1.6 4.8 0.00 0.00 0.00 77 1019.1
20260503031031 6 0.0 0.0 0.00 0.00 0.00 74 1019.0
20260503030033 6 0.0 0.0 0.00 0.00 0.00 71 1018.9
20260503025019 7 0.0 0.0 0.00 0.00 0.00 69 1018.9
20260503024023 7 82 0.0 3.2 0.00 0.00 0.00 69 1018.7
20260503023026 7 23 0.0 1.6 0.00 0.00 0.00 66 1018.7
20260503022028 8 68 0.0 1.6 0.00 0.00 0.00 65 1018.4
20260503021032 8 104 0.0 3.2 0.00 0.00 0.00 64 1018.4
20260503020017 9 104 1.6 3.2 0.00 0.00 0.00 61 1018.4
20260503015026 10 0.0 0.0 0.00 0.00 0.00 56 1018.3
20260503014023 10 0.0 0.0 0.00 0.00 0.00 55 1018.1
20260503013020 10 1 3.2 4.8 0.00 0.00 0.00 52 1017.9
20260503012017 11 44 4.8 6.4 0.00 0.00 0.00 51 1017.8
20260503011020 11 12 3.2 3.2 0.00 0.00 0.00 48 1017.6
20260503010018 11 17 3.2 4.8 0.00 0.00 0.00 48 1017.5